(194698) = 2001 XD231 = 2004 OU1

Discovered at Socorro on 2001-12-15 by LINEAR.

Orbit

Orbit type: Main Belt

Note: WebGL enabled browser required.

epoch2024-03-31.0
epoch JD2460400.5
perihelion date2023-03-16.97979
perihelion JD2460020.47979
argument of perihelion (°)68.90828
ascending node (°)275.04328
inclination (°)7.89222
eccentricity0.1456880
perihelion distance (AU)2.0324151
Tisserand w.r.t. Jupiter3.5
ΔV w.r.t. Earth (km/sec)9.2
semimajor axis (AU)2.3790080
mean anomaly (°)102.07437
mean daily motion (°/day)0.26860250
aphelion distance (AU)2.726
period (years)3.67
P-vector [x]0.95222518
P-vector [y]-0.30531036
P-vector [z]0.00726502
Q-vector [x]0.27305468
Q-vector [y]0.86179607
Q-vector [z]0.42749114
absolute magnitude16.77
phase slope0.15
uncertainty0
referenceMPEC 2024-E23
observations used495
oppositions15
arc length (days)8139
first opposition used2001
last opposition used2024
residual rms (arc-secs)0.69
perturbers coarse indicatorM-v
perturbers precise indicator003Ek
first observation date used2001-11-19.0
last observation date used2024-03-02.0
computer nameMPCLINUX
JD of orbit computation2456819.542200
perihelion JD uncertainty (days)1.0865E-04
argument of perihelion uncertainty (°)5.1311E-05
ascending node uncertainty (°)4.4879E-05
inclination uncertainty (°)6.3744E-06
eccentricity uncertainty 5.6614E-08
perihelion distance uncertainty (AU)1.3566E-07
Minimum Orbit Intersection Distances (in AU)
for orbit epoch: 2460400.5, reference: E2024-E23
Mercury1.65045
Venus1.32428
Earth1.03967
Mars0.7008
Jupiter2.66251
Saturn6.50341
Uranus15.7458
Neptune27.559

Observations

499 total observations over interval: 2001 11 19.36306 – 2024 03 02.302814
These data are available for download (format description).

Date (UT) J2000 RA J2000 Dec Magn Location Ref
2001 11 19.36306 05 10 31.14 +28 44 37.0 19.4   704 – Lincoln Laboratory ETS, New Mexico MPS 111832
2001 11 19.39245 05 10 29.31 +28 44 30.6 20.0   704 – Lincoln Laboratory ETS, New Mexico MPS 111832
2001 11 19.40715 05 10 28.40 +28 44 27.0 20.1   704 – Lincoln Laboratory ETS, New Mexico MPS 111832
2001 12 15.23134 04 41 31.56 +26 30 29.3 19.4   704 – Lincoln Laboratory ETS, New Mexico MPS 45405
2001 12 15.24645 04 41 30.57 +26 30 23.3 20.2   704 – Lincoln Laboratory ETS, New Mexico MPS 45405
2001 12 15.27665 04 41 28.54 +26 30 12.3 19.9   704 – Lincoln Laboratory ETS, New Mexico MPS 45405
2001 12 18.29214 04 38 22.62 +26 11 27.6 19.2   704 – Lincoln Laboratory ETS, New Mexico MPS 45405
2001 12 18.30736 04 38 21.68 +26 11 22.1 19.4   704 – Lincoln Laboratory ETS, New Mexico MPS 45405
2001 12 18.32259 04 38 20.76 +26 11 16.6 19.8   704 – Lincoln Laboratory ETS, New Mexico MPS 45405
2001 12 18.33781 04 38 19.85 +26 11 11.1 19.4   704 – Lincoln Laboratory ETS, New Mexico MPS 45405
2001 12 18.35305 04 38 18.88 +26 11 04.7 19.2   704 – Lincoln Laboratory ETS, New Mexico MPS 45405
2001 12 19.22797 04 37 27.50 +26 05 37.6 19.2   704 – Lincoln Laboratory ETS, New Mexico MPS 54670
2001 12 19.24312 04 37 26.56 +26 05 32.6 20.0   704 – Lincoln Laboratory ETS, New Mexico MPS 54670
2001 12 19.25825 04 37 25.69 +26 05 26.9 19.6   704 – Lincoln Laboratory ETS, New Mexico MPS 54670
2001 12 19.27338 04 37 24.73 +26 05 21.3 19.8   704 – Lincoln Laboratory ETS, New Mexico MPS 54670
2001 12 19.28852 04 37 23.80 +26 05 15.6 19.7   704 – Lincoln Laboratory ETS, New Mexico MPS 54670
2004 06 16.37300 21 03 33.29 -12 38 00.1 20.1 V 691 – Steward Observatory, Kitt Peak-Spacewatch MPS 111880
2004 06 16.40086 21 03 33.28 -12 37 49.7 20.1 V 691 – Steward Observatory, Kitt Peak-Spacewatch MPS 111880
2004 06 16.42857 21 03 33.27 -12 37 39.5 20.6 V 691 – Steward Observatory, Kitt Peak-Spacewatch MPS 111880
2004 07 14.27417 20 52 14.10 -10 26 24.6 19.0 C 704 – Lincoln Laboratory ETS, New Mexico MPS 292533
2004 07 14.28508 20 52 13.53 -10 26 21.1 19.3 C 704 – Lincoln Laboratory ETS, New Mexico MPS 292533
2004 07 14.29501 20 52 13.11 -10 26 19.5 18.9 C 704 – Lincoln Laboratory ETS, New Mexico MPS 292533
2004 07 16.27190 20 50 35.13 -10 20 28.1 19.5   704 – Lincoln Laboratory ETS, New Mexico MPS 110810
2004 07 16.29143 20 50 34.13 -10 20 25.4 19.8   704 – Lincoln Laboratory ETS, New Mexico MPS 110810
2004 07 16.30120 20 50 33.60 -10 20 23.1 19.2   704 – Lincoln Laboratory ETS, New Mexico MPS 110810
2004 07 16.31092 20 50 33.06 -10 20 21.7 19.4   704 – Lincoln Laboratory ETS, New Mexico MPS 110810
2004 07 18.27965 20 48 50.65 -10 15 01.6 19.2   704 – Lincoln Laboratory ETS, New Mexico MPS 110810
2004 07 18.29046 20 48 50.00 -10 14 59.3 20.2   704 – Lincoln Laboratory ETS, New Mexico MPS 110810
2004 07 18.30072 20 48 49.43 -10 14 57.5 19.6   704 – Lincoln Laboratory ETS, New Mexico MPS 110810
2004 07 18.31129 20 48 48.88 -10 14 55.7 19.2   704 – Lincoln Laboratory ETS, New Mexico MPS 110810
2004 07 18.32185 20 48 48.30 -10 14 54.3 19.7   704 – Lincoln Laboratory ETS, New Mexico MPS 110810
2004 08 09.20443 20 27 27.90 -09 45 39.2 18.7   704 – Lincoln Laboratory ETS, New Mexico MPS 111153
2004 08 09.21378 20 27 27.29 -09 45 38.9 18.9   704 – Lincoln Laboratory ETS, New Mexico MPS 111153
2004 08 09.22312 20 27 26.70 -09 45 38.5 19.4   704 – Lincoln Laboratory ETS, New Mexico MPS 111153
2004 08 09.23282 20 27 26.18 -09 45 39.1 19.2   704 – Lincoln Laboratory ETS, New Mexico MPS 111153
2004 08 09.24226 20 27 25.59 -09 45 38.1 19.7   704 – Lincoln Laboratory ETS, New Mexico MPS 111153
2004 08 12.20071 20 24 41.55 -09 45 15.9 18.6   704 – Lincoln Laboratory ETS, New Mexico MPS 111153
2004 08 12.21085 20 24 40.97 -09 45 15.0 19.0   704 – Lincoln Laboratory ETS, New Mexico MPS 111153
2004 08 12.22064 20 24 40.40 -09 45 15.1 19.5   704 – Lincoln Laboratory ETS, New Mexico MPS 111153
2004 08 12.23053 20 24 39.85 -09 45 16.1 19.5   704 – Lincoln Laboratory ETS, New Mexico MPS 111153
2004 08 12.24069 20 24 39.22 -09 45 15.2 19.5   704 – Lincoln Laboratory ETS, New Mexico MPS 111153
2005 12 29.28054 07 58 35.42 +17 17 27.1   691 – Steward Observatory, Kitt Peak-Spacewatch MPS 156483
2005 12 29.29788 07 58 34.36 +17 17 26.5   691 – Steward Observatory, Kitt Peak-Spacewatch MPS 156483
2005 12 29.31523 07 58 33.30 +17 17 25.8   691 – Steward Observatory, Kitt Peak-Spacewatch MPS 156483
2006 01 02.32819 07 54 26.24 +17 15 12.6 20.3 V G96 – Mt. Lemmon Survey MPS 157666
2006 01 02.33523 07 54 25.77 +17 15 12.5 20.3 V G96 – Mt. Lemmon Survey MPS 157666
2006 01 02.34245 07 54 25.27 +17 15 12.4 20.2 V G96 – Mt. Lemmon Survey MPS 157666
2006 01 02.34950 07 54 24.84 +17 15 12.1 20.3 V G96 – Mt. Lemmon Survey MPS 157666
2006 01 06.25041 07 50 11.97 +17 13 47.0 20.3 V 691 – Steward Observatory, Kitt Peak-Spacewatch MPS 158859
2006 01 06.26779 07 50 10.80 +17 13 46.2 20.8 V 691 – Steward Observatory, Kitt Peak-Spacewatch MPS 158859
2006 01 06.28520 07 50 09.67 +17 13 46.7 20.5 V 691 – Steward Observatory, Kitt Peak-Spacewatch MPS 158859
2006 01 09.31756 07 46 47.10 +17 13 02.8 20.1 V G96 – Mt. Lemmon Survey MPS 158859
2006 01 09.32486 07 46 46.59 +17 13 02.7 19.8 V G96 – Mt. Lemmon Survey MPS 158859
2006 01 09.33216 07 46 46.09 +17 13 02.5 19.9 V G96 – Mt. Lemmon Survey MPS 158859
2006 01 09.33946 07 46 45.58 +17 13 02.7 20.2 V G96 – Mt. Lemmon Survey MPS 158859
2008 08 26.03651 01 09 19.35 +21 11 35.3 18.9 R 106 – Crni Vrh MPS 254414
2008 08 26.04613 01 09 19.29 +21 11 37.3 19.5 R 106 – Crni Vrh MPS 254414
2008 08 26.05574 01 09 19.33 +21 11 41.5 18.7 R 106 – Crni Vrh MPS 254414
2008 08 26.06536 01 09 19.22 +21 11 44.2 18.5 R 106 – Crni Vrh MPS 254414
2008 09 30.29797 00 50 43.40 +21 31 07.9 19.1 V 703 – Catalina Sky Survey MPS 257791
2008 09 30.30345 00 50 43.11 +21 31 06.3 19.2 V 703 – Catalina Sky Survey MPS 257791
2008 09 30.30889 00 50 42.79 +21 31 04.3 19.0 V 703 – Catalina Sky Survey MPS 257791
2008 09 30.31427 00 50 42.39 +21 31 02.7 18.5 V 703 – Catalina Sky Survey MPS 257792
2008 10 03.27357 00 48 01.16 +21 15 23.5 19.3   704 – Lincoln Laboratory ETS, New Mexico MPS 259131
2008 10 03.28572 00 48 00.36 +21 15 19.7 19.5   704 – Lincoln Laboratory ETS, New Mexico MPS 259131
2008 10 03.29794 00 47 59.65 +21 15 16.0 19.4   704 – Lincoln Laboratory ETS, New Mexico MPS 259131
2008 10 03.31013 00 47 58.96 +21 15 12.7 19.8   704 – Lincoln Laboratory ETS, New Mexico MPS 259131
2008 10 03.32232 00 47 58.22 +21 15 08.5 19.4   704 – Lincoln Laboratory ETS, New Mexico MPS 259131
2008 10 10.20530 00 41 42.72 +20 30 02.3 18.9 V G96 – Mt. Lemmon Survey MPS 259131
2008 10 10.21008 00 41 42.46 +20 30 00.2 18.9 V G96 – Mt. Lemmon Survey MPS 259131
2008 10 10.21492 00 41 42.18 +20 29 57.5 18.7 V G96 – Mt. Lemmon Survey MPS 259131
2008 10 10.21970 00 41 41.92 +20 29 56.0 18.8 V G96 – Mt. Lemmon Survey MPS 259131
2008 10 24.28095 00 30 39.02 +18 33 13.4 19.1 V 703 – Catalina Sky Survey MPS 261329
2008 10 24.29275 00 30 38.52 +18 33 07.3 19.3 V 703 – Catalina Sky Survey MPS 261329
2008 10 24.30453 00 30 38.05 +18 33 00.9 19.2 V 703 – Catalina Sky Survey MPS 261329
2008 10 24.31623 00 30 37.62 +18 32 55.0 19.4 V 703 – Catalina Sky Survey MPS 261329
2008 10 27.19778 00 28 54.25 +18 07 19.9 18.9   704 – Lincoln Laboratory ETS, New Mexico MPS 261329
2008 10 27.20955 00 28 53.78 +18 07 13.8 19.5   704 – Lincoln Laboratory ETS, New Mexico MPS 261329
2008 10 27.22162 00 28 53.36 +18 07 07.7 19.7   704 – Lincoln Laboratory ETS, New Mexico MPS 261329
2008 10 27.23377 00 28 52.92 +18 07 00.6 19.2   704 – Lincoln Laboratory ETS, New Mexico MPS 261329
2008 11 01.21837 00 26 28.58 +17 23 18.7 19.2 r 568 – Maunakea MPS 1491218
2008 11 02.15610 00 26 06.25 +17 15 13.0 19.1 V 703 – Catalina Sky Survey MPS 263054
2008 11 02.16476 00 26 06.10 +17 15 09.6 19.3 V 703 – Catalina Sky Survey MPS 263054
2008 11 02.17346 00 26 05.89 +17 15 06.1 19.0 V 703 – Catalina Sky Survey MPS 263054
2008 11 02.18218 00 26 05.64 +17 15 00.6 19.4 V 703 – Catalina Sky Survey MPS 263054
2008 11 02.20493 00 26 05.42 +17 14 50.7 19.2 r 568 – Maunakea MPS 1491218
2008 11 02.20929 00 26 05.31 +17 14 48.4 19.2 r 568 – Maunakea MPS 1491218
